Back to catalog

DELTA 1 DEB

AliveSSO
NORAD 13580·DEBRIS·🇺🇸 United States

Launched Mar 5, 1978 from Vandenberg Space Force Base

Loading…

Next Passes (next 24 hours)

TLE

FreshSource: Space-Track

Epoch: Sep 11, 2026, 08:26 UTC

1 13580U 78026FT  26254.35191603  .00000632  00000-0  20518-3 0  9997
2 13580  98.5686 289.5900 0046179  35.5404 324.8846 14.41676897694177

Track DELTA 1 DEB in real time with AllMySat

Download on the App Store